www.pogodaiklimat.ru

Погода и климат >> Архив погоды >> Мексика >> La Paz


ПОГОДА в La Paz

  • Прогноз погоды в La Paz
  • Монитор погоды в La Paz
  • Климат города

АРХИВ ПОГОДЫ в La Paz

Время (UTC), дата Ветер
(напр.,м/с)
 
Видим.   Явления Облачность Т
(С)
Тd
(С)
f
(%)
Тe
(С)
Тes
(С)
Комфортность P
(гПа)
Po
(гПа)
Тmin
(С)
Tmax
(С)
R
(мм)
R24
(мм)
S
(см)
00 20.05 ЮЗ 3 30 км ясно +33.8 +16.3 35 +36 +40 очень
душно
1008.1 1006.1 +16.0 +36.5
03 20.05 Ю 5 2000 м ясно +24.9 +15.7 57 +28 +28 жарко 1009.5 1007.5
09 20.05 Ю 3 2000 м ясно +17.7 +14.0 79 +18 +18 1010.9 1008.8
12 20.05 Ю 3 2000 м ясно +14.9 +13.4 91 +14 +14 1011.2 1009.1 +14.9 +36.5
15 20.05 Ю 5 25 км ясно +17.8 +13.2 74 +17 +20 1012.5 1010.4
18 20.05 Ю 4 30 км ясно +28.2 +14.4 43 +30 +44 жарко 1011.9 1009.7 +14.3 +28.7
21 20.05 ЮЗ 3 30 км ясно +35.4 +15.6 31 +37 +53 опасность
солнечного
удара
1010.3 1008.2
00 21.05 З 3 30 км ясно +34.6 +17.2 36 +38 +42 очень
душно
1008.8 1006.7 +14.3 +36.3
03 21.05 Ю 4 2000 м ясно +24.0 +15.7 60 +27 +27 жарко 1010.0 1007.9
06 21.05 Ю 5 2000 м ясно +18.4 +14.9 80 +19 +19 1011.0 1008.9 +14.3 +36.3
09 21.05 Ю 5 2000 м ясно +16.0 +14.2 89 +15 +15 1010.2 1008.1
12 21.05 Ю 5 2000 м ясно +15.3 +13.8 91 +14 +14 1011.0 1008.8 +14.8 +36.3
15 21.05 Ю 5 25 км ясно +17.0 +13.7 81 +16 +19 1012.4 1010.3
18 21.05 Ю 4 30 км ясно +28.0 +17.1 52 +32 +45 душно 1010.8 1008.7 +14.8 +28.5
21 21.05 СЗ 3 30 км ясно +33.6 +16.8 37 +37 +52 опасность
солнечного
удара
1009.1 1007.1
00 22.05 З 2 30 км ясно +34.7 +17.7 37 +39 +43 очень
душно
1008.3 1006.2 +14.8 +35.4
03 22.05 Ю 5 2000 м ясно +23.6 +15.8 62 +27 +27 жарко 1010.0 1007.9
06 22.05 Ю 5 2000 м ясно +18.6 +14.6 78 +19 +19 1011.7 1009.6 +14.8 +35.4
09 22.05 Ю 5 2000 м ясно +16.5 +13.9 85 +16 +16 1010.9 1008.8
12 22.05 Ю 4 2000 м ясно +15.2 +13.4 89 +14 +14 1011.0 1008.9 +14.6 +35.4
15 22.05 Ю 5 25 км ясно +15.8 +13.0 83 +15 +18 1013.0 1010.8
18 22.05 Ю 2 30 км ясно +28.8 +14.6 42 +31 +51 опасность
солнечного
удара
1011.8 1009.7 +14.0 +28.8
21 22.05 С 4 30 км ясно +30.8 +14.0 36 +32 +45 жарко 1010.3 1008.2
00 23.05 СЗ 2 30 км ясно +33.4 +15.8 35 +36 +40 очень
душно
1009.0 1006.9 +14.0 +34.2
03 23.05 Ю 4 2000 м ясно +25.9 +16.4 56 +29 +29 душно 1010.0 1008.0
06 23.05 Ю 4 2000 м ясно +20.6 +14.9 70 +24 +24 комфорт 1011.8 1009.8 +14.0 +34.2
09 23.05 Ю 4 2000 м ясно +17.6 +14.0 79 +17 +17 1011.0 1008.9
12 23.05 Ю 3 2000 м ясно +16.0 +13.7 86 +16 +16 1011.2 1009.1 +15.4
15 23.05 Ю 3 25 км ясно +20.2 +13.8 67 +23 +27 комфорт 1012.6 1010.5
18 23.05 СЗ 2 30 км 1/0
[Ci fib]
+31.4 +12.3 31 +32 +51 опасность
солнечного
удара
1012.8 1010.7 +15.4 +32.0
21 23.05 С 4 30 км 3/0
[Ci fib]
+32.2 +12.8 31 +33 +45 жарко 1011.9 1009.8
00 24.05 СЗ 2 30 км 3/0
[Ci fib]
+35.6 +15.7 31 +38 +42 очень
душно
1010.7 1008.7 +15.4 +36.7
03 24.05 З 1 2000 м 1/0
[Ci fib]
+27.0 +20.1 66 +33 +33 очень
душно
1012.3 1010.3
06 24.05 Ю 3 2000 м 3/0
[Ci fib]
+23.3 +14.9 59 +27 +27 душно 1013.5 1011.4 +15.4 +36.7
09 24.05 Ю 2 2000 м 1/0
[Ci fib]
+20.9 +13.7 63 +24 +24 комфорт 1012.5 1010.4
12 24.05 Ю 1 2000 м ясно +18.8 +10.4 58 +21 +21 комфорт 1012.6 1010.5 +18.1 +36.7
15 24.05 Ю 1 25 км 6/0
[Ci fib]
+24.6 +11.5 44 +26 +32 жарко 1014.6 1012.5
18 24.05 СЗ 3 30 км 5/0
[Cs]
+30.1 +15.9 42 +33 +48 душно 1014.9 1012.8 +18.0 +30.9
21 24.05 С 3 30 км 5/0 2000 м
[As trans Ci fib]
+32.8 +15.7 36 +35 +48 душно 1014.1 1012.0
00 25.05 Ю 3 30 км 4/0
[Cs]
+33.6 +18.6 41 +38 +42 очень
душно
1012.5 1010.4 +18.0 +36.5
03 25.05 З 1 2000 м 5/0 2000 м
[Ac cast Cs]
+26.3 +20.9 72 +33 +33 очень
душно
1012.6 1010.6
06 25.05 Ю 3 2000 м 5/0 2000 м
[Ac trans Cs]
+25.9 +18.6 64 +31 +31 очень
душно
1013.7 1011.7 +18.0 +36.5
09 25.05 Ю 2 2000 м 3/0
[Ci fib]
+24.2 +14.3 54 +27 +27 жарко 1012.8 1010.7
12 25.05 Ю 2 2000 м 1/0
[Ci fib]
+23.8 +13.6 53 +26 +26 жарко 1012.3 1010.3 +23.2 +36.5
15 25.05 Ю 1 25 км 1/0
[Ci fib]
+28.2 +15.2 45 +31 +37 душно 1013.2 1011.2
18 25.05 СЗ 3 30 км 4/0
[Ci fib]
+35.0 +13.9 28 +36 +51 опасность
солнечного
удара
1012.8 1010.7 +22.4 +35.6
21 25.05 С 4 30 км 3/0
[Ci fib]
+37.9 +16.9 29 +40 +52 опасность
солнечного
удара
1011.5 1009.4
00 26.05 СЗ 4 30 км 3/0
[Ci fib]
+34.6 +19.6 41 +40 +43 очень
душно
1009.4 1007.4 +22.4 +39.4
03 26.05 штиль 0 2000 м 1/0
[Ci fib]
+31.6 +18.2 45 +36 +36 очень
душно
1009.4 1007.4
06 26.05 Ю 4 2000 м ясно +26.2 +16.5 55 +30 +30 душно 1011.0 1008.9 +22.4 +39.4
09 26.05 Ю 3 2000 м ясно +23.6 +15.6 61 +27 +27 жарко 1009.7 1007.7
12 26.05 Ю 3 2000 м ясно +23.6 +14.9 58 +26 +26 жарко 1009.2 1007.2 +23.0 +39.4
15 26.05 Ю 3 25 км ясно +26.8 +15.8 51 +30 +35 душно 1010.4 1008.3
18 26.05 СЗ 2 30 км 3/0
[Ci fib]
+36.5 +18.4 35 +41 +59 опасность
перегрева
1010.0 1008.0 +22.8 +37.0
21 26.05 С 4 30 км 3/0
[Ci fib]
+38.5 +19.5 33 +43 +55 опасность
перегрева
1008.5 1006.5

 

Местоположение метеостанции La Paz (Мексика): широта 24.17 долгота -110.30 высота над уровнем моря 18 м.

В архиве по умолчанию представлена погода в La Paz за последнюю неделю. Архивные данные за месяц целиком и за предыдущие месяцы, начиная с января 2011 года, Вы можете получить, выбрав интересующий диапазон дат из раскрывающегося списка и нажав кнопку "Ввод!".


*Определитесь, кто Вы:
робот инопланетянин человек

Внимание! Время в таблицах - всемирное. Для получения местного времени необходимо прибавить поправку, которая в La Paz равна -6 ч.

Смотрите также архив погоды в соседних городах и на ближайших метеорологических станциях:

Погода в Ciudad Constitucion (Мексика) (166 км)
Погода в Loreto (Мексика) (229 км)
Погода в Culiacan (Мексика) (302 км)
Погода в Choix (Мексика) (354 км)
Погода в Ciudad Obregon (Мексика) (361 км)
Погода в Santa Rosalia (Мексика) (397 км)
Погода в Mazatlan (Мексика) (412 км)
Погода в Guaymas (Мексика) (421 км)
Погода в Empalme (Мексика) (422 км)
Погода в Tepehuanes (Мексика) (481 км)

Пояснения к столбцам:

Ветер - указаны скорость ветра в м/с - средняя за 10 мин, порывы в срок и между сроками (в фигурных скобках) и направление, откуда дует ветер: С - северный, СВ - северо-восточный, В - восточный, ЮВ - юго-восточный, Ю - южный, ЮЗ - юго-западный, З - западный, СЗ - северо-западный.
Видимость - горизонтальная дальность видимости в метрах или километрах. При видимости от 1 до 10 км при отсутствии осадков обычно наблюдается дымка, при ухудшении видимости до 1 км и менее - туман. В сухую погоду видимость может ухудшаться дымом, пылью или мглою.
Явления - указаны атмосферные явления, наблюдавшиеся в срок или в последний час перед сроком; фигурными скобками обозначены явления, наблюдавшиеся между сроками (за 1-3 часа до срока); квадратными скобками обозначены град или гололедные отложения с указанием их диаметра в мм.
Облачность - указаны через наклонную черту общая и нижняя облачность в баллах и высота нижней границы облаков в метрах; квадратными скобками обозначены формы облаков: Ci - перистые, Cs - перисто-слоистые, Cc - перисто-кучевые, Ac - высококучевые, As - высокослоистые, Sc - слоисто-кучевые, Ns - слоисто-дождевые, Cu - кучевые, Cb - кучево-дождевые. Подробнее классификацию облаков см. в Атласе облаков (PDF).
T - Температура воздуха - температура, измеренная на высоте 2 м над землей.
Td - Температура точки росы - температура, при понижении до которой содержащийся в воздухе водяной пар достигнет насыщения.
f - Относительная влажность воздуха - влажноcть воздуха, измеренная на высоте 2 м над землей.
Te - Эффективная температура - температура, которую ощущает одетый по сезону человек в тени. Характеристика душности погоды. При расчете учитывается влияние влажности воздуха и скорости ветра на теплоощущения человека.
Tes - Эффективная температура на солнце - температура, которую ощущает человек, с поправкой на солнечный нагрев. Характеристика знойности погоды. Зависит от высоты солнца над горизонтом, облачности и скорости ветра. Ночью, в пасмурную погоду, а также при ветре 12 м/с и более поправка равна нулю.
P - Атмосферное давление - приведенное к уровню моря атмосферное давление.
Po - Атмосферное давление - измеренное на уровне метеостанции атмосферное давление.
Tmin - Минимальная температура - минимум температуры воздуха на высоте 2 м над землей.
Tmax - Максимальная температура - максимум температуры воздуха на высоте 2 м над землей.
R - Количество осадков - Количество выпавших осадков за период времени, мм. При наведении курсора мыши на число - период времени, за который выпало указанное количество осадков.
R24 - Количество осадков - Количество выпавших осадков за 24 часа, мм.
S - Снежный покров - Высота снежного покрова, см. При наведении курсора мыши на число - состояние снежного покрова и степень покрытия местности в баллах.